• In Latvia
  • List of Countries
  • For 7 days
  • Water Temperature
  • Satellite Maps
  • Weather Map
  • Weather Widgets
  • user-avatar
    Login

    Hourly Weather Jurmala

    Today, 19 February, Monday

    Time Temperature Precipitation Wind Pressure Humidity
    00:00 -2°C° 0 mm 1 mps 767 mmHg 94%
    01:00 -2°C° 0 mm 1 mps 767 mmHg 95%
    02:00 -3°C° 0 mm 1 mps 767 mmHg 94%
    03:00 -3°C° 0 mm 1 mps 766 mmHg 94%
    04:00 -3°C° 0 mm 1 mps 766 mmHg 94%
    05:00 -3°C° 0 mm 1 mps 766 mmHg 94%
    06:00 -3°C° 0 mm 1 mps 766 mmHg 94%
    07:00 -3°C° 0 mm 1 mps 766 mmHg 95%
    08:00 -3°C° 0 mm 1 mps 767 mmHg 95%
    09:00 -2°C° 0 mm 1 mps 767 mmHg 92%
    10:00 -1°C° 0 mm 1 mps 767 mmHg 90%
    11:00 0°C° 0 mm 1 mps 767 mmHg 88%
    12:00 0°C° 0 mm 1 mps 767 mmHg 87%
    13:00 0°C° 0 mm 1 mps 767 mmHg 86%
    14:00 0°C° 0 mm 1 mps 767 mmHg 85%
    15:00 -2°C° 0 mm 2 mps 767 mmHg 86%
    16:00 -3°C° 0 mm 2 mps 767 mmHg 88%
    17:00 -3°C° 0 mm 2 mps 767 mmHg 89%
    18:00 -4°C° 0 mm 2 mps 768 mmHg 90%
    19:00 -5°C° 0 mm 2 mps 768 mmHg 90%
    20:00 -5°C° 0 mm 2 mps 768 mmHg 91%
    21:00 -6°C° 0 mm 2 mps 768 mmHg 91%
    22:00 -6°C° 0 mm 2 mps 768 mmHg 91%
    23:00 -6°C° 0 mm 2 mps 768 mmHg 91%

    Tomorrow, 20 February, Tuesday

    Time Temperature Precipitation Wind Pressure Humidity
    00:00 -6°C° 0 mm 2 mps 768 mmHg 91%
    01:00 -7°C° 0 mm 2 mps 768 mmHg 91%
    02:00 -6°C° 0 mm 1 mps 769 mmHg 92%
    03:00 -6°C° 0 mm 1 mps 769 mmHg 92%
    04:00 -6°C° 0 mm 1 mps 768 mmHg 92%
    05:00 -7°C° 0 mm 2 mps 768 mmHg 92%
    06:00 -7°C° 0 mm 2 mps 768 mmHg 92%
    07:00 -8°C° 0 mm 2 mps 769 mmHg 92%
    08:00 -8°C° 0 mm 2 mps 769 mmHg 92%
    09:00 -7°C° 0 mm 2 mps 769 mmHg 89%
    10:00 -6°C° 0 mm 2 mps 769 mmHg 86%
    11:00 -3°C° 0 mm 1 mps 769 mmHg 83%
    12:00 -3°C° 0 mm 1 mps 769 mmHg 81%
    13:00 -3°C° 0 mm 1 mps 769 mmHg 79%
    14:00 -2°C° 0 mm 1 mps 769 mmHg 77%
    15:00 -2°C° 0 mm 1 mps 769 mmHg 79%
    16:00 -5°C° 0 mm 2 mps 769 mmHg 81%
    17:00 -5°C° 0 mm 2 mps 769 mmHg 83%
    18:00 -5°C° 0 mm 2 mps 769 mmHg 85%
    19:00 -6°C° 0 mm 2 mps 769 mmHg 87%
    20:00 -6°C° 0 mm 2 mps 769 mmHg 89%
    21:00 -6°C° 0 mm 2 mps 769 mmHg 90%
    22:00 -7°C° 0 mm 2 mps 769 mmHg 90%
    23:00 -7°C° 0 mm 2 mps 769 mmHg 91%

    Day after tomorrow, 21 February, Wednesday

    Time Temperature Precipitation Wind Pressure Humidity
    00:00 -7°C° 0 mm 2 mps 769 mmHg 91%
    01:00 -6°C° 0 mm 1 mps 769 mmHg 92%
    02:00 -6°C° 0 mm 1 mps 769 mmHg 92%
    03:00 -7°C° 0 mm 1 mps 769 mmHg 93%
    04:00 -7°C° 0 mm 1 mps 769 mmHg 93%
    05:00 -8°C° 0 mm 1 mps 769 mmHg 94%
    06:00 -8°C° 0 mm 1 mps 769 mmHg 94%
    07:00 -8°C° 0 mm 1 mps 769 mmHg 94%
    08:00 -9°C° 0 mm 1 mps 768 mmHg 94%
    09:00 -7°C° 0 mm 1 mps 769 mmHg 90%
    10:00 -6°C° 0 mm 1 mps 769 mmHg 86%
    11:00 -4°C° 0 mm 1 mps 769 mmHg 82%
    12:00 -4°C° 0 mm 1 mps 769 mmHg 79%
    13:00 -4°C° 0 mm 1 mps 769 mmHg 77%
    14:00 -3°C° 0 mm 1 mps 769 mmHg 74%
    15:00 -4°C° 0 mm 1 mps 769 mmHg 77%
    16:00 -6°C° 0 mm 2 mps 769 mmHg 79%
    17:00 -6°C° 0 mm 2 mps 769 mmHg 82%
    18:00 -7°C° 0 mm 2 mps 769 mmHg 84%
    19:00 -8°C° 0 mm 2 mps 769 mmHg 86%
    20:00 -9°C° 0 mm 2 mps 769 mmHg 88%
    21:00 -9°C° 0 mm 2 mps 770 mmHg 88%
    22:00 -9°C° 0 mm 2 mps 770 mmHg 89%
    23:00 -10°C° 0 mm 2 mps 770 mmHg 90%

    22 February, Thursday

    Time Temperature Precipitation Wind Pressure Humidity
    00:00 -10°C° 0 mm 2 mps 770 mmHg 90%
    01:00 -10°C° 0 mm 2 mps 771 mmHg 91%
    02:00 -12°C° 0 mm 2 mps 771 mmHg 91%
    03:00 -12°C° 0 mm 2 mps 771 mmHg 92%
    04:00 -12°C° 0 mm 2 mps 771 mmHg 92%
    05:00 -13°C° 0 mm 2 mps 771 mmHg 93%
    06:00 -13°C° 0 mm 2 mps 771 mmHg 93%
    07:00 -13°C° 0 mm 2 mps 772 mmHg 93%
    08:00 -13°C° 0 mm 2 mps 772 mmHg 93%
    09:00 -12°C° 0 mm 2 mps 772 mmHg 89%
    10:00 -10°C° 0 mm 2 mps 772 mmHg 85%
    11:00 -10°C° 0 mm 2 mps 772 mmHg 81%
    12:00 -9°C° 0 mm 2 mps 772 mmHg 78%
    13:00 -8°C° 0 mm 2 mps 772 mmHg 76%
    14:00 -8°C° 0 mm 2 mps 772 mmHg 73%
    15:00 -8°C° 0 mm 2 mps 772 mmHg 76%
    16:00 -8°C° 0 mm 2 mps 772 mmHg 78%
    17:00 -9°C° 0 mm 2 mps 772 mmHg 81%
    18:00 -9°C° 0 mm 2 mps 772 mmHg 83%
    19:00 -10°C° 0 mm 2 mps 772 mmHg 85%
    20:00 -10°C° 0 mm 2 mps 772 mmHg 88%
    21:00 -12°C° 0 mm 2 mps 772 mmHg 88%
    22:00 -10°C° 0 mm 1 mps 772 mmHg 89%
    23:00 -10°C° 0 mm 1 mps 772 mmHg 89%

    23 February, Friday

    Time Temperature Precipitation Wind Pressure Humidity
    00:00 -10°C° 0 mm 1 mps 772 mmHg 90%
    01:00 -11°C° 0 mm 1 mps 772 mmHg 91%
    02:00 -11°C° 0 mm 1 mps 771 mmHg 92%
    03:00 -11°C° 0.1 mm 1 mps 771 mmHg 92%
    04:00 -12°C° 0.1 mm 2 mps 771 mmHg 92%
    05:00 -12°C° 0.1 mm 2 mps 770 mmHg 92%
    06:00 -12°C° 0.1 mm 2 mps 770 mmHg 91%
    07:00 -12°C° 0.1 mm 2 mps 770 mmHg 90%
    08:00 -10°C° 0.1 mm 2 mps 770 mmHg 90%
    09:00 -12°C° 0.1 mm 3 mps 770 mmHg 87%
    10:00 -10°C° 0.1 mm 3 mps 770 mmHg 84%
    11:00 -9°C° 0.1 mm 3 mps 770 mmHg 81%
    12:00 -9°C° 0.1 mm 3 mps 770 mmHg 79%
    13:00 -9°C° 0.1 mm 3 mps 770 mmHg 77%
    14:00 -10°C° 0.1 mm 4 mps 770 mmHg 76%
    15:00 -10°C° 0 mm 4 mps 770 mmHg 77%
    16:00 -10°C° 0 mm 4 mps 770 mmHg 78%
    17:00 -11°C° 0 mm 4 mps 770 mmHg 79%
    18:00 -11°C° 0 mm 4 mps 771 mmHg 81%
    19:00 -12°C° 0 mm 4 mps 771 mmHg 83%
    20:00 -12°C° 0 mm 4 mps 771 mmHg 85%
    21:00 -12°C° 0 mm 4 mps 771 mmHg 85%
    22:00 -14°C° 0 mm 4 mps 771 mmHg 85%
    23:00 -14°C° 0 mm 4 mps 772 mmHg 86%

    24 February, Saturday

    Time Temperature Precipitation Wind Pressure Humidity
    00:00 -14°C° 0 mm 4 mps 772 mmHg 86%
    01:00 -15°C° 0 mm 4 mps 772 mmHg 86%
    02:00 -15°C° 0 mm 4 mps 772 mmHg 86%
    03:00 -15°C° 0 mm 4 mps 772 mmHg 86%
    04:00 -15°C° 0 mm 5 mps 772 mmHg 86%
    05:00 -17°C° 0 mm 5 mps 772 mmHg 86%
    06:00 -17°C° 0 mm 5 mps 772 mmHg 86%
    07:00 -17°C° 0 mm 5 mps 772 mmHg 86%
    08:00 -17°C° 0 mm 5 mps 772 mmHg 85%
    09:00 -17°C° 0 mm 5 mps 772 mmHg 83%
    10:00 -16°C° 0 mm 6 mps 773 mmHg 80%
    11:00 -15°C° 0 mm 6 mps 773 mmHg 77%
    12:00 -15°C° 0 mm 7 mps 773 mmHg 76%
    13:00 -15°C° 0 mm 7 mps 773 mmHg 75%
    14:00 -14°C° 0 mm 7 mps 772 mmHg 74%
    15:00 -14°C° 0 mm 7 mps 773 mmHg 75%
    16:00 -15°C° 0 mm 8 mps 773 mmHg 77%
    17:00 -15°C° 0 mm 8 mps 773 mmHg 78%
    18:00 -16°C° 0 mm 8 mps 773 mmHg 79%
    19:00 -16°C° 0 mm 8 mps 773 mmHg 80%
    20:00 -16°C° 0 mm 8 mps 774 mmHg 80%
    21:00 -16°C° 0 mm 8 mps 774 mmHg 81%
    22:00 -16°C° 0 mm 8 mps 774 mmHg 81%
    23:00 -16°C° 0 mm 8 mps 774 mmHg 81%
    Show more